Regional Weather Roundup
Issued by NWS Midland/Odessa, TX

Skip options and go directly to product.
Home | Oldest Version | Previous Version | Current Version | All | Text Only | Save Text | Print | Product List | Glossary Off

Skip product version selection by date and time.   

752
ASUS44 KMAF 290010
RWRMAF
MIDLAND AREA WEATHER ROUNDUP
NATIONAL WEATHER SERVICE MIDLAND TX
700 PM CDT SUN AUG 28 2016

...IN SOUTHWEST TEXAS AND SOUTHEAST NEW MEXICO...

CITY           SKY/WX    TMP DP  RH WIND       PRES   REMARKS
ALPINE         CLOUDY    68  60  75 SW3       30.17F
ANDREWS        NOT AVBL
ARTESIA        CLOUDY    79  61  53 NW12      30.05F
BIG SPRING     PTSUNNY   83  67  59 E16       30.04F
CARLSBAD       PTSUNNY   83  60  45 N16       30.03R THUNDER
DRYDEN           N/A     84  68  58 S8        29.97R
FORT STOCKTON  CLOUDY    79  61  53 S8        30.01F
GUAD PASS      SUNNY     77  57  50 NE16G22   30.18S
HOBBS          MOSUNNY   84  57  39 SE9       30.06S
MARFA          CLOUDY   N/A N/A N/A E9        30.14F
MIDLAND AIRPK  PTSUNNY   83  64  52 SE23G31   30.04R
MIDLAND INTL   PTSUNNY   84  63  49 SE16      30.02R
ODESSA         CLOUDY    82  62  50 S14       30.03R
PECOS          CLOUDY    80  64  58 S9        29.98S
PRESIDIO       NOT AVBL
SEMINOLE       SUNNY     82  61  48 CALM      30.05R
SNYDER           N/A     83  67  57 SE12      30.03F
WINK           CLOUDY    87  60  40 SE21G26   29.98R
$$
...OTHER STATIONS IN TEXAS...

CITY           SKY/WX    TMP DP  RH WIND       PRES   REMARKS
ABILENE        PTSUNNY   82  69  64 SE6       30.01R
AMARILLO       PTSUNNY   76  64  66 SE12      30.11R
AUSTIN         LGT RAIN  86  73  65 E14G23    29.91F
BROWNSVILLE    CLOUDY    88  73  61 E12       29.86F
CORPUS CHRISTI MOSUNNY   89  75  63 E14       29.86R
DALLAS FTW     MOSUNNY   88  65  46 E12       29.96S
DEL RIO        CLOUDY    80  67  64 NE14G23   29.93R
EL PASO        MOSUNNY   87  54  32 VRB5      30.02S
HOUSTON INT    MOCLDY    78  74  87 VRB5      29.93S
LUBBOCK        PTSUNNY   74  64  71 E17G28    30.10R THUNDER
SAN ANGELO     SUNNY     86  68  54 E10       29.98S
SAN ANTONIO    MOSUNNY   87  69  54 E13       29.92S
WACO           MOSUNNY   87  72  60 E14       29.95S
WICHITA FALLS  NOT AVBL
$$
...OTHER LOCATIONS IN NEW MEXICO...

CITY           SKY/WX    TMP DP  RH WIND       PRES   REMARKS
ALAMAGORDO     MOSUNNY   79  45  29 NW6       30.08F
ALBUQUERQUE    MOSUNNY   75  44  33 NW15      30.21S
CANNON AFB     MOSUNNY   81  59  47 S18       30.11R
CLOVIS         CLOUDY    79  57  47 SE15G22   30.13R
HOLLOMAN AFB   MOSUNNY   84  43  23 SW7       30.05F
ROSWELL        PTSUNNY   83  61  47 SW8       30.06S
RUIDOSO          N/A     66  52  59 NW3       30.30S
SANTA FE       CLOUDY    73  37  27 W20G26    30.23R
TRUTH OR CONSE SUNNY     79  42  26 CALM      30.14R
TUCUMCARI      LGT RAIN  80  55  42 S12       30.07R
$$

USA.gov is the U.S. government's official web portal to all federal, state and local government web resources and services.